When you browse on this site, cookies collect data to enhance your experience and personalize the content and advertising you see.
Visit our Privacy Policy to learn more. By continuing to use the site, you agree to this use of cookies and data.
  • In Hungary
  • List of Countries
  • For 7 days
  • Water Temperature
  • Satellite Maps
  • Weather Map
  • News
  • Weather Widgets
  • user-avatar
    Login

    Hourly Weather Raevo

    Today, 18 January, Friday

    Time Temperature Precipitation Wind Pressure Humidity
    00:00 -3°C° 0.1 mm 6 mps 721 mmHg 87%
    01:00 -3°C° 0.1 mm 6 mps 721 mmHg 86%
    02:00 -3°C° 0 mm 4 mps 722 mmHg 87%
    03:00 -4°C° 0 mm 4 mps 722 mmHg 87%
    04:00 -4°C° 0 mm 4 mps 723 mmHg 87%
    05:00 -6°C° 0 mm 5 mps 723 mmHg 86%
    06:00 -7°C° 0 mm 4 mps 724 mmHg 88%
    07:00 -8°C° 0 mm 4 mps 725 mmHg 90%
    08:00 -8°C° 0 mm 3 mps 725 mmHg 93%
    09:00 -8°C° 0 mm 3 mps 726 mmHg 93%
    10:00 -8°C° 0 mm 3 mps 726 mmHg 92%
    11:00 -8°C° 0 mm 3 mps 727 mmHg 92%
    12:00 -8°C° 0 mm 2 mps 727 mmHg 92%
    13:00 -8°C° 0 mm 2 mps 727 mmHg 92%
    14:00 -7°C° 0 mm 1 mps 727 mmHg 93%
    15:00 -7°C° 0 mm 1 mps 727 mmHg 93%
    16:00 -8°C° 0 mm 1 mps 727 mmHg 94%
    17:00 -8°C° 0 mm 1 mps 727 mmHg 94%
    18:00 -9°C° 0 mm 1 mps 728 mmHg 94%
    19:00 -10°C° 0 mm 2 mps 728 mmHg 93%
    20:00 -12°C° 0 mm 2 mps 728 mmHg 93%
    21:00 -12°C° 0 mm 2 mps 729 mmHg 94%
    22:00 -13°C° 0 mm 2 mps 729 mmHg 95%
    23:00 -14°C° 0 mm 3 mps 730 mmHg 96%

    Tomorrow, 19 January, Saturday

    Time Temperature Precipitation Wind Pressure Humidity
    00:00 -14°C° 0 mm 3 mps 730 mmHg 96%
    01:00 -13°C° 0 mm 3 mps 730 mmHg 95%
    02:00 -14°C° 0 mm 4 mps 730 mmHg 94%
    03:00 -12°C° 0.1 mm 4 mps 730 mmHg 94%
    04:00 -11°C° 0.1 mm 4 mps 731 mmHg 93%
    05:00 -10°C° 0.1 mm 4 mps 731 mmHg 92%
    06:00 -10°C° 0.2 mm 4 mps 731 mmHg 92%
    07:00 -10°C° 0.2 mm 4 mps 732 mmHg 92%
    08:00 -8°C° 0.2 mm 3 mps 732 mmHg 92%
    09:00 -10°C° 0.1 mm 4 mps 732 mmHg 91%
    10:00 -11°C° 0.1 mm 4 mps 733 mmHg 90%
    11:00 -11°C° 0.1 mm 4 mps 733 mmHg 89%
    12:00 -10°C° 0 mm 3 mps 734 mmHg 89%
    13:00 -10°C° 0 mm 3 mps 734 mmHg 90%
    14:00 -10°C° 0 mm 3 mps 734 mmHg 90%
    15:00 -12°C° 0 mm 3 mps 734 mmHg 91%
    16:00 -13°C° 0 mm 3 mps 735 mmHg 93%
    17:00 -13°C° 0 mm 3 mps 735 mmHg 94%
    18:00 -12°C° 0 mm 3 mps 735 mmHg 94%
    19:00 -10°C° 0 mm 3 mps 735 mmHg 94%
    20:00 -9°C° 0 mm 3 mps 736 mmHg 95%
    21:00 -9°C° 0 mm 3 mps 736 mmHg 94%
    22:00 -8°C° 0 mm 3 mps 736 mmHg 92%
    23:00 -8°C° 0 mm 4 mps 736 mmHg 91%

    Day after tomorrow, 20 January, Sunday

    Time Temperature Precipitation Wind Pressure Humidity
    00:00 -8°C° 0 mm 4 mps 736 mmHg 91%
    01:00 -9°C° 0 mm 4 mps 735 mmHg 90%
    02:00 -10°C° 0 mm 5 mps 735 mmHg 89%
    03:00 -10°C° 0.3 mm 5 mps 734 mmHg 89%
    04:00 -10°C° 0.3 mm 5 mps 733 mmHg 90%
    05:00 -9°C° 0.3 mm 6 mps 733 mmHg 90%
    06:00 -9°C° 0.4 mm 6 mps 732 mmHg 90%
    07:00 -8°C° 0.4 mm 6 mps 732 mmHg 91%
    08:00 -6°C° 0.4 mm 5 mps 732 mmHg 91%
    09:00 -7°C° 0.6 mm 5 mps 731 mmHg 90%
    10:00 -7°C° 0.6 mm 5 mps 731 mmHg 89%
    11:00 -7°C° 0.6 mm 5 mps 731 mmHg 88%
    12:00 -7°C° 0.2 mm 5 mps 731 mmHg 88%
    13:00 -7°C° 0.2 mm 5 mps 732 mmHg 88%
    14:00 -8°C° 0.2 mm 5 mps 732 mmHg 88%
    15:00 -8°C° 0.1 mm 4 mps 732 mmHg 89%
    16:00 -9°C° 0.1 mm 4 mps 733 mmHg 91%
    17:00 -9°C° 0.1 mm 3 mps 733 mmHg 92%
    18:00 -10°C° 0.1 mm 3 mps 734 mmHg 91%
    19:00 -11°C° 0.1 mm 4 mps 734 mmHg 90%
    20:00 -12°C° 0.1 mm 4 mps 734 mmHg 89%
    21:00 -12°C° 0 mm 4 mps 735 mmHg 90%
    22:00 -14°C° 0 mm 4 mps 735 mmHg 91%
    23:00 -15°C° 0 mm 4 mps 735 mmHg 92%

    21 January, Monday

    Time Temperature Precipitation Wind Pressure Humidity
    00:00 -14°C° 0 mm 3 mps 735 mmHg 93%
    01:00 -14°C° 0 mm 3 mps 735 mmHg 94%
    02:00 -14°C° 0 mm 3 mps 736 mmHg 94%
    03:00 -14°C° 0.1 mm 3 mps 736 mmHg 95%
    04:00 -15°C° 0.1 mm 3 mps 736 mmHg 95%
    05:00 -14°C° 0.1 mm 2 mps 736 mmHg 95%
    06:00 -14°C° 0.1 mm 2 mps 736 mmHg 95%
    07:00 -14°C° 0.1 mm 2 mps 736 mmHg 95%
    08:00 -14°C° 0.1 mm 2 mps 736 mmHg 96%
    09:00 -15°C° 0.1 mm 3 mps 736 mmHg 93%
    10:00 -15°C° 0.1 mm 3 mps 737 mmHg 91%
    11:00 -16°C° 0.1 mm 4 mps 737 mmHg 89%
    12:00 -15°C° 0.1 mm 3 mps 737 mmHg 89%
    13:00 -15°C° 0.1 mm 3 mps 737 mmHg 90%
    14:00 -15°C° 0.1 mm 3 mps 737 mmHg 90%
    15:00 -17°C° 0 mm 3 mps 738 mmHg 92%
    16:00 -18°C° 0 mm 3 mps 738 mmHg 94%
    17:00 -18°C° 0 mm 2 mps 738 mmHg 97%
    18:00 -19°C° 0 mm 2 mps 738 mmHg 97%
    19:00 -19°C° 0 mm 2 mps 739 mmHg 98%
    20:00 -20°C° 0 mm 2 mps 739 mmHg 98%
    21:00 -19°C° 0 mm 2 mps 739 mmHg 98%
    22:00 -17°C° 0 mm 1 mps 739 mmHg 98%
    23:00 -17°C° 0 mm 1 mps 739 mmHg 98%

    22 January, Tuesday

    Time Temperature Precipitation Wind Pressure Humidity
    00:00 -17°C° 0 mm 1 mps 739 mmHg 98%
    01:00 -17°C° 0 mm 1 mps 740 mmHg 98%
    02:00 -17°C° 0 mm 1 mps 740 mmHg 99%
    03:00 -17°C° 0 mm 1 mps 740 mmHg 99%
    04:00 -17°C° 0 mm 1 mps 740 mmHg 99%
    05:00 -17°C° 0 mm 1 mps 739 mmHg 99%
    06:00 -17°C° 0 mm 1 mps 740 mmHg 99%
    07:00 -18°C° 0 mm 1 mps 740 mmHg 99%
    08:00 -18°C° 0 mm 1 mps 740 mmHg 99%
    09:00 -17°C° 0 mm 1 mps 740 mmHg 98%
    10:00 -16°C° 0 mm 1 mps 740 mmHg 97%
    11:00 -15°C° 0 mm 1 mps 740 mmHg 97%
    12:00 -14°C° 0 mm 1 mps 740 mmHg 96%
    13:00 -14°C° 0 mm 1 mps 740 mmHg 96%
    14:00 -13°C° 0 mm 1 mps 740 mmHg 95%
    15:00 -14°C° 0 mm 1 mps 740 mmHg 96%
    16:00 -15°C° 0 mm 1 mps 740 mmHg 97%
    17:00 -17°C° 0 mm 1 mps 740 mmHg 98%
    18:00 -17°C° 0 mm 1 mps 740 mmHg 98%
    19:00 -17°C° 0 mm 1 mps 740 mmHg 98%
    20:00 -18°C° 0 mm 1 mps 740 mmHg 98%
    21:00 -18°C° 0 mm 1 mps 739 mmHg 98%
    22:00 -20°C° 0 mm 2 mps 739 mmHg 98%
    23:00 -20°C° 0 mm 2 mps 739 mmHg 98%

    23 January, Wednesday

    Time Temperature Precipitation Wind Pressure Humidity
    00:00 -19°C° 0 mm 2 mps 739 mmHg 98%
    01:00 -18°C° 0 mm 2 mps 739 mmHg 98%
    02:00 -17°C° 0 mm 2 mps 739 mmHg 98%
    03:00 -15°C° 0 mm 2 mps 739 mmHg 97%
    04:00 -15°C° 0 mm 3 mps 739 mmHg 96%
    05:00 -14°C° 0 mm 3 mps 738 mmHg 95%
    06:00 -14°C° 0 mm 3 mps 738 mmHg 95%
    07:00 -13°C° 0 mm 3 mps 738 mmHg 95%
    08:00 -13°C° 0 mm 3 mps 738 mmHg 95%
    09:00 -12°C° 0 mm 3 mps 738 mmHg 94%
    10:00 -11°C° 0 mm 4 mps 738 mmHg 93%
    11:00 -11°C° 0 mm 4 mps 738 mmHg 92%
    12:00 -10°C° 0 mm 4 mps 738 mmHg 91%
    13:00 -10°C° 0 mm 4 mps 738 mmHg 90%
    14:00 -10°C° 0 mm 4 mps 738 mmHg 90%
    15:00 -11°C° 0 mm 4 mps 738 mmHg 90%
    16:00 -12°C° 0 mm 3 mps 738 mmHg 90%
    17:00 -13°C° 0 mm 3 mps 738 mmHg 91%
    18:00 -14°C° 0 mm 3 mps 738 mmHg 91%
    19:00 -14°C° 0 mm 3 mps 738 mmHg 92%
    20:00 -15°C° 0 mm 3 mps 738 mmHg 93%
    21:00 -14°C° 0 mm 3 mps 739 mmHg 93%
    22:00 -13°C° 0 mm 3 mps 739 mmHg 93%
    23:00 -12°C° 0 mm 3 mps 739 mmHg 93%
    Show more